"read_dt","SO2 (ppb)","flags","PMT voltage (V)","lamp voltage (V)","lamp intensity (Hz)","internal temp (C)","react chamber temp (C)","sample flow (l/min)","pres (mmHg)","SO2 bkg (ppb)","SO2 coefficient"
2015-12-22 00:00:00,1731E-3,5C000400,-0724,0833,12140,021.5,045.2,0.267,762.8,01.16,0.508
2015-12-22 00:01:00,1854E-3,5C000400,-0724,0833,12124,021.5,045.3,0.267,762.8,01.16,0.508
2015-12-22 00:02:00,1827E-3,5C000400,-0724,0832,12251,021.5,045.3,0.267,762.9,01.16,0.508
2015-12-22 00:03:00,1751E-3,5C000400,-0724,0832,12161,021.5,045.3,0.268,762.8,01.16,0.508
2015-12-22 00:04:00,1840E-3,5C000400,-0724,0833,12237,021.5,045.3,0.267,762.8,01.16,0.508
2015-12-22 00:05:00,1939E-3,5C000400,-0724,0832,12179,021.5,045.3,0.267,762.8,01.16,0.508
2015-12-22 00:06:00,1884E-3,5C000400,-0724,0832,12096,021.5,045.3,0.268,762.8,01.16,0.508
2015-12-22 00:07:00,1867E-3,5C000400,-0724,0833,12232,021.5,045.3,0.267,762.8,01.16,0.508
2015-12-22 00:08:00,1811E-3,5C000400,-0724,0833,12064,021.5,045.3,0.267,762.8,01.16,0.508
2015-12-22 00:09:00,1868E-3,5C000400,-0724,0833,12178,021.5,045.2,0.268,762.8,01.16,0.508
2015-12-22 00:10:00,1865E-3,5C000400,-0724,0833,12197,021.5,045.3,0.267,762.8,01.16,0.508
2015-12-22 00:11:00,1832E-3,5C000400,-0724,0832,12113,021.5,045.3,0.267,762.8,01.16,0.508
2015-12-22 00:12:00,1702E-3,5C000400,-0724,0833,12271,021.4,045.3,0.268,762.8,01.16,0.508
2015-12-22 00:13:00,1935E-3,5C000400,-0724,0832,12184,021.5,045.2,0.267,762.8,01.16,0.508
2015-12-22 00:14:00,1872E-3,5C000400,-0724,0833,12171,021.5,045.2,0.268,762.8,01.16,0.508
2015-12-22 00:15:00,1899E-3,5C000400,-0724,0832,12144,021.5,045.2,0.267,762.7,01.16,0.508
2015-12-22 00:16:00,1728E-3,5C000400,-0724,0833,12108,021.5,045.2,0.268,762.8,01.16,0.508
2015-12-22 00:17:00,1886E-3,5C000400,-0724,0832,12179,021.5,045.2,0.267,762.8,01.16,0.508
2015-12-22 00:18:00,1891E-3,5C000400,-0724,0833,12184,021.5,045.3,0.267,762.8,01.16,0.508
2015-12-22 00:19:00,1876E-3,5C000400,-0724,0833,12049,021.5,045.3,0.268,762.9,01.16,0.508
2015-12-22 00:20:00,1828E-3,5C000400,-0724,0833,12118,021.4,045.3,0.267,762.9,01.16,0.508
2015-12-22 00:21:00,1812E-3,5C000400,-0724,0833,12126,021.4,045.3,0.268,762.9,01.16,0.508
2015-12-22 00:22:00,1929E-3,5C000400,-0724,0833,12237,021.5,045.3,0.267,762.9,01.16,0.508
2015-12-22 00:23:00,1734E-3,5C000400,-0724,0832,12181,021.5,045.3,0.267,762.9,01.16,0.508
2015-12-22 00:24:00,1915E-3,5C000400,-0724,0833,12086,021.5,045.3,0.267,763.0,01.16,0.508
2015-12-22 00:25:00,1808E-3,5C000400,-0724,0832,12224,021.5,045.3,0.267,763.0,01.16,0.508
2015-12-22 00:26:00,1817E-3,5C000400,-0724,0833,12197,021.5,045.3,0.267,763.0,01.16,0.508
2015-12-22 00:27:00,1720E-3,5C000400,-0724,0832,12165,021.4,045.3,0.267,763.0,01.16,0.508
2015-12-22 00:28:00,1894E-3,5C000400,-0724,0833,12117,021.5,045.3,0.267,763.0,01.16,0.508
2015-12-22 00:29:00,1773E-3,5C000400,-0724,0832,12052,021.4,045.3,0.267,762.9,01.16,0.508
2015-12-22 00:30:00,1773E-3,5C000400,-0724,0833,12173,021.5,045.3,0.268,763.0,01.16,0.508
2015-12-22 00:31:00,1809E-3,5C000400,-0724,0833,12158,021.5,045.3,0.267,762.9,01.16,0.508
2015-12-22 00:32:00,1884E-3,5C000400,-0724,0834,12154,021.5,045.3,0.268,763.0,01.16,0.508
2015-12-22 00:33:00,1896E-3,5C000400,-0724,0833,12277,021.5,045.2,0.267,763.0,01.16,0.508
2015-12-22 00:34:00,1892E-3,5C000400,-0724,0833,12185,021.5,045.2,0.268,763.0,01.16,0.508
2015-12-22 00:35:00,1845E-3,5C000400,-0724,0833,12098,021.5,045.2,0.267,763.0,01.16,0.508
2015-12-22 00:36:00,1904E-3,5C000400,-0724,0833,12189,021.5,045.2,0.268,763.0,01.16,0.508
2015-12-22 00:37:00,1838E-3,5C000400,-0724,0833,12085,021.5,045.3,0.267,763.0,01.16,0.508
2015-12-22 00:38:00,1908E-3,5C000400,-0724,0833,12199,021.5,045.3,0.267,763.0,01.16,0.508
2015-12-22 00:39:00,1886E-3,5C000400,-0724,0832,12291,021.5,045.2,0.267,763.0,01.16,0.508
2015-12-22 00:40:00,1794E-3,5C000400,-0724,0833,12228,021.4,045.2,0.268,763.0,01.16,0.508
2015-12-22 00:41:00,1799E-3,5C000400,-0724,0833,12311,021.4,045.3,0.267,763.0,01.16,0.508
2015-12-22 00:42:00,1825E-3,5C000400,-0724,0833,12290,021.5,045.3,0.267,763.0,01.16,0.508
2015-12-22 00:43:00,1916E-3,5C000400,-0724,0833,12035,021.5,045.3,0.267,763.0,01.16,0.508
2015-12-22 00:44:00,1944E-3,5C000400,-0724,0833,12189,021.5,045.3,0.268,763.0,01.16,0.508
2015-12-22 00:45:00,1845E-3,5C000400,-0724,0833,12089,021.4,045.3,0.267,763.1,01.16,0.508
2015-12-22 00:46:00,1801E-3,5C000400,-0724,0833,12232,021.4,045.3,0.267,763.1,01.16,0.508
2015-12-22 00:47:00,1924E-3,5C000400,-0724,0833,12141,021.5,045.3,0.267,763.1,01.16,0.508
2015-12-22 00:48:00,1906E-3,5C000400,-0724,0833,12191,021.5,045.2,0.267,763.1,01.16,0.508
2015-12-22 00:49:00,1872E-3,5C000400,-0724,0833,12169,021.4,045.3,0.267,763.1,01.16,0.508
2015-12-22 00:50:00,1837E-3,5C000400,-0724,0832,12190,021.4,045.3,0.267,763.1,01.16,0.508
2015-12-22 00:51:00,1734E-3,5C000400,-0724,0833,12096,021.4,045.3,0.267,763.1,01.16,0.508
2015-12-22 00:52:00,1913E-3,5C000400,-0724,0833,12316,021.5,045.3,0.267,763.1,01.16,0.508
2015-12-22 00:53:00,1711E-3,5C000400,-0724,0833,12186,021.5,045.3,0.267,763.0,01.16,0.508
2015-12-22 00:54:00,1715E-3,5C000400,-0724,0833,12206,021.4,045.3,0.267,763.0,01.16,0.508
2015-12-22 00:55:00,1945E-3,5C000400,-0724,0833,12180,021.5,045.3,0.268,763.0,01.16,0.508
2015-12-22 00:56:00,1886E-3,5C000400,-0724,0832,12211,021.4,045.3,0.267,763.0,01.16,0.508
2015-12-22 00:57:00,1898E-3,5C000400,-0724,0833,12293,021.4,045.3,0.268,763.0,01.16,0.508
2015-12-22 00:58:00,1814E-3,5C000400,-0724,0833,12154,021.4,045.3,0.267,763.0,01.16,0.508
2015-12-22 00:59:00,1840E-3,5C000400,-0724,0833,12241,021.4,045.3,0.268,763.0,01.16,0.508
2015-12-22 01:00:00,1823E-3,5C000400,-0724,0833,12076,021.4,045.3,0.267,763.0,01.16,0.508
2015-12-22 01:01:00,1852E-3,5C000400,-0724,0833,12110,021.4,045.2,0.268,763.0,01.16,0.508
2015-12-22 01:02:00,1862E-3,5C000400,-0724,0833,12197,021.5,045.2,0.267,763.0,01.16,0.508
2015-12-22 01:03:00,1892E-3,5C000400,-0724,0832,12238,021.4,045.3,0.267,763.0,01.16,0.508
2015-12-22 01:04:00,1856E-3,5C000400,-0724,0833,12025,021.4,045.2,0.267,763.0,01.16,0.508
2015-12-22 01:05:00,1851E-3,5C000400,-0724,0833,12155,021.4,045.3,0.267,763.0,01.16,0.508
2015-12-22 01:06:00,1726E-3,5C000400,-0724,0833,12265,021.4,045.3,0.268,763.0,01.16,0.508
2015-12-22 01:07:00,1962E-3,5C000400,-0724,0833,12031,021.5,045.3,0.267,763.0,01.16,0.508
2015-12-22 01:08:00,1917E-3,5C000400,-0724,0833,12166,021.4,045.3,0.268,763.1,01.16,0.508
2015-12-22 01:09:00,1855E-3,5C000400,-0724,0833,12261,021.4,045.3,0.267,763.0,01.16,0.508
2015-12-22 01:10:00,1899E-3,5C000400,-0724,0833,12145,021.4,045.3,0.268,763.0,01.16,0.508
2015-12-22 01:11:00,1718E-3,5C000400,-0724,0833,12127,021.4,045.3,0.267,763.0,01.16,0.508
2015-12-22 01:12:00,1957E-3,5C000400,-0724,0833,12145,021.4,045.3,0.268,763.0,01.16,0.508
2015-12-22 01:13:00,1883E-3,5C000400,-0724,0833,12143,021.4,045.3,0.267,763.0,01.16,0.508
2015-12-22 01:14:00,1875E-3,5C000400,-0724,0833,12195,021.4,045.3,0.268,763.0,01.16,0.508
2015-12-22 01:15:00,1899E-3,5C000400,-0724,0833,12222,021.4,045.2,0.268,763.0,01.16,0.508
2015-12-22 01:16:00,1917E-3,5C000400,-0724,0833,12194,021.4,045.3,0.268,763.0,01.16,0.508
2015-12-22 01:17:00,1810E-3,5C000400,-0724,0833,12122,021.4,045.3,0.268,763.0,01.16,0.508
2015-12-22 01:18:00,1823E-3,5C000400,-0724,0833,12197,021.4,045.3,0.267,763.0,01.16,0.508
2015-12-22 01:19:00,1770E-3,5C000400,-0724,0833,12244,021.4,045.3,0.268,763.0,01.16,0.508
2015-12-22 01:20:00,1833E-3,5C000400,-0724,0832,12231,021.4,045.3,0.267,763.1,01.16,0.508
2015-12-22 01:21:00,1878E-3,5C000400,-0724,0833,12038,021.4,045.3,0.268,763.1,01.16,0.508
2015-12-22 01:22:00,1728E-3,5C000400,-0724,0832,12256,021.4,045.3,0.267,763.1,01.16,0.508
2015-12-22 01:23:00,1834E-3,5C000400,-0724,0833,12112,021.4,045.3,0.268,763.1,01.16,0.508
2015-12-22 01:24:00,1886E-3,5C000400,-0724,0833,12267,021.4,045.3,0.267,763.1,01.16,0.508
2015-12-22 01:25:00,1803E-3,5C000400,-0724,0833,11814,021.4,045.3,0.268,763.1,01.16,0.508
2015-12-22 01:26:00,1908E-3,5C000400,-0724,0832,12166,021.4,045.3,0.267,763.1,01.16,0.508
2015-12-22 01:27:00,1951E-3,5C000400,-0724,0833,12161,021.4,045.2,0.268,763.2,01.16,0.508
2015-12-22 01:28:00,1837E-3,5C000400,-0724,0833,12272,021.4,045.3,0.267,763.1,01.16,0.508
2015-12-22 01:29:00,1776E-3,5C000400,-0724,0833,12171,021.4,045.3,0.268,763.2,01.16,0.508
2015-12-22 01:30:00,1884E-3,5C000400,-0724,0832,12124,021.4,045.3,0.267,763.2,01.16,0.508
2015-12-22 01:31:00,1833E-3,5C000400,-0724,0833,12153,021.4,045.3,0.268,763.2,01.16,0.508
2015-12-22 01:32:00,1865E-3,5C000400,-0724,0833,12263,021.4,045.3,0.267,763.2,01.16,0.508
2015-12-22 01:33:00,1813E-3,5C000400,-0724,0833,12097,021.4,045.3,0.267,763.2,01.16,0.508
2015-12-22 01:34:00,1731E-3,5C000400,-0724,0833,12150,021.4,045.2,0.267,763.2,01.16,0.508
2015-12-22 01:35:00,1868E-3,5C000400,-0724,0833,12183,021.4,045.3,0.267,763.2,01.16,0.508
2015-12-22 01:36:00,1943E-3,5C000400,-0724,0833,12214,021.4,045.3,0.268,763.2,01.16,0.508
2015-12-22 01:37:00,1764E-3,5C000400,-0724,0833,12228,021.4,045.3,0.267,763.2,01.16,0.508
2015-12-22 01:38:00,1817E-3,5C000400,-0724,0833,12156,021.4,045.3,0.267,763.2,01.16,0.508
2015-12-22 01:39:00,1723E-3,5C000400,-0724,0833,12157,021.4,045.3,0.267,763.3,01.16,0.508
2015-12-22 01:40:00,1838E-3,5C000400,-0724,0833,12229,021.4,045.2,0.268,763.3,01.16,0.508
2015-12-22 01:41:00,1820E-3,5C000400,-0724,0833,12307,021.4,045.2,0.267,763.3,01.16,0.508
2015-12-22 01:42:00,1835E-3,5C000400,-0724,0832,12134,021.4,045.3,0.268,763.3,01.16,0.508
2015-12-22 01:43:00,1800E-3,5C000400,-0724,0833,12251,021.4,045.3,0.267,763.3,01.16,0.508
2015-12-22 01:44:00,1784E-3,5C000400,-0724,0833,12188,021.4,045.3,0.268,763.3,01.16,0.508
2015-12-22 01:45:00,1919E-3,5C000400,-0724,0833,12235,021.4,045.3,0.267,763.3,01.16,0.508
2015-12-22 01:46:00,1889E-3,5C000400,-0724,0833,12158,021.4,045.3,0.268,763.3,01.16,0.508
2015-12-22 01:47:00,1830E-3,5C000400,-0724,0833,12322,021.4,045.3,0.267,763.3,01.16,0.508
2015-12-22 01:48:00,1826E-3,5C000400,-0724,0833,12305,021.4,045.3,0.268,763.3,01.16,0.508
2015-12-22 01:49:00,1879E-3,5C000400,-0724,0833,12215,021.4,045.3,0.267,763.3,01.16,0.508
2015-12-22 01:50:00,1816E-3,5C000400,-0724,0833,12190,021.4,045.3,0.268,763.3,01.16,0.508
2015-12-22 01:51:00,1773E-3,5C000400,-0724,0833,12151,021.4,045.3,0.267,763.3,01.16,0.508
2015-12-22 01:52:00,1864E-3,5C000400,-0724,0833,12256,021.4,045.3,0.268,763.3,01.16,0.508
2015-12-22 01:53:00,1838E-3,5C000400,-0724,0833,12125,021.4,045.3,0.268,763.3,01.16,0.508
2015-12-22 01:54:00,1899E-3,5C000400,-0724,0833,12020,021.4,045.2,0.268,763.3,01.16,0.508
2015-12-22 01:55:00,1779E-3,5C000400,-0724,0833,12121,021.4,045.3,0.267,763.3,01.16,0.508
2015-12-22 01:56:00,2012E-3,5C000400,-0724,0833,12221,021.4,045.3,0.268,763.3,01.16,0.508
2015-12-22 01:57:00,1820E-3,5C000400,-0724,0833,12184,021.4,045.2,0.267,763.3,01.16,0.508
2015-12-22 01:58:00,1872E-3,5C000400,-0724,0833,12016,021.4,045.3,0.267,763.3,01.16,0.508
2015-12-22 01:59:00,1852E-3,5C000400,-0724,0832,12247,021.4,045.3,0.268,763.3,01.16,0.508
2015-12-22 02:00:00,1792E-3,5C000400,-0724,0832,12128,021.4,045.3,0.267,763.2,01.16,0.508
2015-12-22 02:01:00,1942E-3,5C000400,-0724,0832,12127,021.4,045.2,0.268,763.2,01.16,0.508
2015-12-22 02:02:00,1985E-3,5C000400,-0724,0833,12264,021.3,045.3,0.267,763.3,01.16,0.508
2015-12-22 02:03:00,1859E-3,5C000400,-0724,0832,12137,021.4,045.3,0.268,763.3,01.16,0.508
2015-12-22 02:04:00,1864E-3,5C000400,-0724,0832,12258,021.3,045.3,0.267,763.3,01.16,0.508
2015-12-22 02:05:00,1800E-3,5C000400,-0724,0833,12141,021.4,045.3,0.268,763.2,01.16,0.508
2015-12-22 02:06:00,1872E-3,5C000400,-0724,0833,12151,021.3,045.3,0.268,763.3,01.16,0.508
2015-12-22 02:07:00,1819E-3,5C000400,-0724,0833,12120,021.4,045.2,0.268,763.2,01.16,0.508
2015-12-22 02:08:00,1905E-3,5C000400,-0724,0833,12130,021.3,045.3,0.268,763.2,01.16,0.508
2015-12-22 02:09:00,1984E-3,5C000400,-0724,0833,12296,021.3,045.2,0.268,763.2,01.16,0.508
2015-12-22 02:10:00,1900E-3,5C000400,-0724,0833,12302,021.3,045.2,0.268,763.2,01.16,0.508
2015-12-22 02:11:00,1759E-3,5C000400,-0724,0833,12124,021.4,045.3,0.267,763.2,01.16,0.508
2015-12-22 02:12:00,1931E-3,5C000400,-0724,0833,12133,021.4,045.3,0.268,763.3,01.16,0.508
2015-12-22 02:13:00,1780E-3,5C000400,-0724,0833,12183,021.4,045.3,0.267,763.3,01.16,0.508
2015-12-22 02:14:00,1886E-3,5C000400,-0724,0832,12291,021.4,045.3,0.268,763.2,01.16,0.508
2015-12-22 02:15:00,1837E-3,5C000400,-0724,0833,12187,021.3,045.3,0.268,763.2,01.16,0.508
2015-12-22 02:16:00,1672E-3,5C000400,-0724,0833,12177,021.3,045.3,0.268,763.2,01.16,0.508
2015-12-22 02:17:00,1859E-3,5C000400,-0724,0833,12167,021.3,045.3,0.268,763.2,01.16,0.508
2015-12-22 02:18:00,1816E-3,5C000400,-0724,0833,12019,021.3,045.3,0.268,763.2,01.16,0.508
2015-12-22 02:19:00,1970E-3,5C000400,-0724,0833,12286,021.3,045.3,0.267,763.2,01.16,0.508
2015-12-22 02:20:00,1783E-3,5C000400,-0724,0833,12235,021.3,045.3,0.268,763.2,01.16,0.508
2015-12-22 02:21:00,1762E-3,5C000400,-0724,0832,12138,021.4,045.3,0.267,763.2,01.16,0.508
2015-12-22 02:22:00,1765E-3,5C000400,-0724,0833,12128,021.3,045.3,0.268,763.2,01.16,0.508
2015-12-22 02:23:00,1835E-3,5C000400,-0724,0833,12089,021.3,045.2,0.267,763.3,01.16,0.508
2015-12-22 02:24:00,1779E-3,5C000400,-0724,0833,12107,021.3,045.2,0.268,763.2,01.16,0.508
2015-12-22 02:25:00,1864E-3,5C000400,-0724,0833,12156,021.3,045.3,0.267,763.3,01.16,0.508
2015-12-22 02:26:00,1998E-3,5C000400,-0724,0833,12241,021.3,045.3,0.268,763.2,01.16,0.508
2015-12-22 02:27:00,1917E-3,5C000400,-0724,0834,12220,021.3,045.3,0.267,763.2,01.16,0.508
2015-12-22 02:28:00,1865E-3,5C000400,-0724,0833,12236,021.3,045.3,0.268,763.2,01.16,0.508
2015-12-22 02:29:00,1830E-3,5C000400,-0724,0832,12156,021.3,045.3,0.267,763.3,01.16,0.508
2015-12-22 02:30:00,1720E-3,5C000400,-0724,0833,12129,021.3,045.3,0.268,763.3,01.16,0.508
2015-12-22 02:31:00,1965E-3,5C000400,-0724,0833,12265,021.3,045.3,0.267,763.3,01.16,0.508
2015-12-22 02:32:00,1769E-3,5C000400,-0724,0834,12283,021.3,045.3,0.268,763.3,01.16,0.508
2015-12-22 02:33:00,1775E-3,5C000400,-0724,0833,12179,021.3,045.3,0.267,763.3,01.16,0.508
2015-12-22 02:34:00,1745E-3,5C000400,-0724,0833,12207,021.3,045.3,0.268,763.3,01.16,0.508
2015-12-22 02:35:00,1778E-3,5C000400,-0724,0834,12151,021.3,045.2,0.268,763.3,01.16,0.508
2015-12-22 02:36:00,1753E-3,5C000400,-0724,0832,12143,021.3,045.3,0.268,763.3,01.16,0.508
2015-12-22 02:37:00,1803E-3,5C000400,-0724,0832,12171,021.3,045.3,0.268,763.3,01.16,0.508
2015-12-22 02:38:00,1850E-3,5C000400,-0724,0833,12166,021.3,045.3,0.268,763.3,01.16,0.508
2015-12-22 02:39:00,1885E-3,5C000400,-0724,0833,12066,021.3,045.3,0.268,763.3,01.16,0.508
2015-12-22 02:40:00,1722E-3,5C000400,-0724,0833,12091,021.3,045.3,0.267,763.3,01.16,0.508
2015-12-22 02:41:00,1665E-3,5C000400,-0724,0833,12173,021.3,045.3,0.268,763.3,01.16,0.508
2015-12-22 02:42:00,1771E-3,5C000400,-0724,0833,12117,021.3,045.3,0.268,763.3,01.16,0.508
2015-12-22 02:43:00,1750E-3,5C000400,-0724,0833,12261,021.3,045.3,0.268,763.3,01.16,0.508
2015-12-22 02:44:00,1818E-3,5C000400,-0724,0834,12060,021.3,045.3,0.268,763.3,01.16,0.508
2015-12-22 02:45:00,1925E-3,5C000400,-0724,0832,12019,021.3,045.2,0.268,763.3,01.16,0.508
2015-12-22 02:46:00,1789E-3,5C000400,-0724,0833,12168,021.3,045.2,0.268,763.3,01.16,0.508
2015-12-22 02:47:00,1925E-3,5C000400,-0724,0833,12217,021.3,045.2,0.267,763.3,01.16,0.508
2015-12-22 02:48:00,1796E-3,5C000400,-0724,0833,12184,021.3,045.3,0.268,763.3,01.16,0.508
2015-12-22 02:49:00,1826E-3,5C000400,-0724,0833,12205,021.3,045.3,0.267,763.3,01.16,0.508
2015-12-22 02:50:00,1754E-3,5C000400,-0724,0833,12163,021.3,045.3,0.268,763.3,01.16,0.508
2015-12-22 02:51:00,1906E-3,5C000400,-0724,0833,12273,021.3,045.3,0.268,763.3,01.16,0.508
2015-12-22 02:52:00,1925E-3,5C000400,-0724,0833,12203,021.3,045.2,0.267,763.3,01.16,0.508
2015-12-22 02:53:00,1753E-3,5C000400,-0724,0833,12216,021.3,045.3,0.268,763.3,01.16,0.508
2015-12-22 02:54:00,1885E-3,5C000400,-0724,0832,12188,021.3,045.3,0.267,763.3,01.16,0.508
2015-12-22 02:55:00,1742E-3,5C000400,-0724,0832,12122,021.3,045.2,0.268,763.3,01.16,0.508
2015-12-22 02:56:00,1892E-3,5C000400,-0724,0833,12126,021.3,045.3,0.268,763.3,01.16,0.508
2015-12-22 02:57:00,1837E-3,5C000400,-0724,0833,12073,021.3,045.3,0.268,763.3,01.16,0.508
2015-12-22 02:58:00,1822E-3,5C000400,-0724,0832,12077,021.3,045.3,0.268,763.3,01.16,0.508
2015-12-22 02:59:00,1761E-3,5C000400,-0724,0833,12139,021.3,045.3,0.267,763.3,01.16,0.508
2015-12-22 03:00:00,1960E-3,5C000400,-0724,0833,12197,021.3,045.3,0.268,763.3,01.16,0.508
2015-12-22 03:01:00,1882E-3,5C000400,-0724,0832,12090,021.3,045.2,0.267,763.3,01.16,0.508
2015-12-22 03:02:00,1753E-3,5C000400,-0724,0833,12246,021.3,045.2,0.268,763.2,01.16,0.508
2015-12-22 03:03:00,1715E-3,5C000400,-0724,0833,12275,021.3,045.2,0.267,763.2,01.16,0.508
2015-12-22 03:04:00,1842E-3,5C000400,-0724,0832,12099,021.3,045.3,0.268,763.2,01.16,0.508
2015-12-22 03:05:00,1791E-3,5C000400,-0724,0833,12205,021.3,045.2,0.268,763.2,01.16,0.508
2015-12-22 03:06:00,1841E-3,5C000400,-0724,0832,12157,021.3,045.3,0.267,763.2,01.16,0.508
2015-12-22 03:07:00,1887E-3,5C000400,-0724,0833,12160,021.3,045.3,0.268,763.3,01.16,0.508
2015-12-22 03:08:00,1897E-3,5C000400,-0724,0833,12135,021.3,045.2,0.267,763.3,01.16,0.508
2015-12-22 03:09:00,1903E-3,5C000400,-0724,0833,12332,021.3,045.2,0.268,763.3,01.16,0.508
2015-12-22 03:10:00,1825E-3,5C000400,-0724,0833,12017,021.3,045.2,0.268,763.3,01.16,0.508
2015-12-22 03:11:00,1763E-3,5C000400,-0724,0832,12178,021.3,045.2,0.267,763.3,01.16,0.508
2015-12-22 03:12:00,2052E-3,5C000400,-0724,0833,12210,021.3,045.2,0.268,763.3,01.16,0.508
2015-12-22 03:13:00,1942E-3,5C000400,-0724,0833,12114,021.3,045.2,0.268,763.4,01.16,0.508
2015-12-22 03:14:00,1813E-3,5C000400,-0724,0833,12065,021.3,045.3,0.268,763.3,01.16,0.508
2015-12-22 03:15:00,1804E-3,5C000400,-0724,0833,12167,021.3,045.2,0.268,763.3,01.16,0.508
2015-12-22 03:16:00,1859E-3,5C000400,-0724,0833,12108,021.3,045.3,0.268,763.2,01.16,0.508
2015-12-22 03:17:00,1832E-3,5C000400,-0724,0833,12085,021.3,045.3,0.268,763.3,01.16,0.508
2015-12-22 03:18:00,1935E-3,5C000400,-0724,0833,12177,021.3,045.3,0.267,763.4,01.16,0.508
2015-12-22 03:19:00,1888E-3,5C000400,-0724,0832,12198,021.3,045.3,0.268,763.4,01.16,0.508
2015-12-22 03:20:00,1777E-3,5C000400,-0724,0832,12117,021.3,045.3,0.268,763.4,01.16,0.508
2015-12-22 03:21:00,1890E-3,5C000400,-0724,0833,12217,021.3,045.3,0.267,763.4,01.16,0.508
2015-12-22 03:22:00,1774E-3,5C000400,-0724,0833,12222,021.3,045.3,0.268,763.3,01.16,0.508
2015-12-22 03:23:00,1803E-3,5C000400,-0724,0833,12268,021.3,045.2,0.268,763.3,01.16,0.508
2015-12-22 03:24:00,1881E-3,5C000400,-0724,0833,12265,021.3,045.3,0.267,763.3,01.16,0.508
2015-12-22 03:25:00,1843E-3,5C000400,-0724,0833,12122,021.3,045.2,0.268,763.3,01.16,0.508
2015-12-22 03:26:00,1844E-3,5C000400,-0724,0832,12242,021.3,045.3,0.268,763.3,01.16,0.508
2015-12-22 03:27:00,1874E-3,5C000400,-0724,0834,12241,021.3,045.3,0.268,763.3,01.16,0.508
2015-12-22 03:28:00,1922E-3,5C000400,-0724,0833,12234,021.3,045.3,0.268,763.3,01.16,0.508
2015-12-22 03:29:00,1836E-3,5C000400,-0724,0832,11962,021.3,045.2,0.268,763.3,01.16,0.508
2015-12-22 03:30:00,1924E-3,5C000400,-0724,0833,12059,021.3,045.3,0.268,763.3,01.16,0.508
2015-12-22 03:31:00,1906E-3,5C000400,-0724,0832,12071,021.3,045.3,0.268,763.3,01.16,0.508
2015-12-22 03:32:00,1749E-3,5C000400,-0724,0833,12088,021.3,045.2,0.268,763.4,01.16,0.508
2015-12-22 03:33:00,1933E-3,5C000400,-0724,0833,12193,021.3,045.2,0.268,763.4,01.16,0.508
2015-12-22 03:34:00,1806E-3,5C000400,-0724,0832,12209,021.3,045.3,0.268,763.3,01.16,0.508
2015-12-22 03:35:00,1766E-3,5C000400,-0724,0833,12070,021.2,045.3,0.268,763.3,01.16,0.508
2015-12-22 03:36:00,1870E-3,5C000400,-0724,0833,12078,021.2,045.2,0.268,763.3,01.16,0.508
2015-12-22 03:37:00,1827E-3,5C000400,-0724,0833,12236,021.3,045.2,0.268,763.3,01.16,0.508
2015-12-22 03:38:00,1790E-3,5C000400,-0724,0833,12128,021.3,045.3,0.268,763.3,01.16,0.508
2015-12-22 03:39:00,1984E-3,5C000400,-0724,0832,12187,021.2,045.2,0.268,763.3,01.16,0.508
2015-12-22 03:40:00,1720E-3,5C000400,-0724,0832,12100,021.2,045.3,0.268,763.3,01.16,0.508
2015-12-22 03:41:00,1832E-3,5C000400,-0724,0832,12175,021.2,045.3,0.268,763.3,01.16,0.508
2015-12-22 03:42:00,1728E-3,5C000400,-0724,0833,12299,021.2,045.2,0.268,763.4,01.16,0.508
2015-12-22 03:43:00,1855E-3,5C000400,-0724,0833,12161,021.2,045.3,0.268,763.4,01.16,0.508
2015-12-22 03:44:00,2044E-3,5C000400,-0724,0833,12124,021.2,045.3,0.268,763.4,01.16,0.508
2015-12-22 03:45:00,1826E-3,5C000400,-0724,0833,12155,021.2,045.3,0.268,763.4,01.16,0.508
2015-12-22 03:46:00,1815E-3,5C000400,-0724,0833,12202,021.3,045.3,0.268,763.4,01.16,0.508
2015-12-22 03:47:00,1795E-3,5C000400,-0724,0832,12173,021.2,045.3,0.267,763.4,01.16,0.508
2015-12-22 03:48:00,1742E-3,5C000400,-0724,0833,12225,021.2,045.3,0.268,763.4,01.16,0.508
2015-12-22 03:49:00,1872E-3,5C000400,-0724,0833,12226,021.2,045.2,0.268,763.4,01.16,0.508
2015-12-22 03:50:00,1912E-3,5C000400,-0724,0833,12180,021.2,045.3,0.267,763.5,01.16,0.508
2015-12-22 03:51:00,1844E-3,5C000400,-0724,0833,12270,021.2,045.3,0.268,763.4,01.16,0.508
2015-12-22 03:52:00,1872E-3,5C000400,-0724,0833,12165,021.2,045.3,0.268,763.4,01.16,0.508
2015-12-22 03:53:00,1835E-3,5C000400,-0724,0832,12083,021.2,045.3,0.268,763.4,01.16,0.508
2015-12-22 03:54:00,1806E-3,5C000400,-0724,0832,12234,021.2,045.3,0.268,763.4,01.16,0.508
2015-12-22 03:55:00,1911E-3,5C000400,-0724,0833,12300,021.2,045.2,0.267,763.4,01.16,0.508
2015-12-22 03:56:00,1865E-3,5C000400,-0724,0833,12225,021.2,045.2,0.268,763.4,01.16,0.508
2015-12-22 03:57:00,1812E-3,5C000400,-0724,0832,12178,021.2,045.3,0.268,763.4,01.16,0.508
2015-12-22 03:58:00,1812E-3,5C000400,-0724,0833,12096,021.2,045.3,0.268,763.4,01.16,0.508
2015-12-22 03:59:00,1875E-3,5C000400,-0724,0832,12147,021.2,045.3,0.268,763.4,01.16,0.508
2015-12-22 04:00:00,1767E-3,5C000400,-0724,0832,12255,021.2,045.3,0.267,763.5,01.16,0.508
2015-12-22 04:01:00,1832E-3,5C000400,-0724,0832,12095,021.2,045.3,0.268,763.4,01.16,0.508
2015-12-22 04:02:00,1856E-3,5C000400,-0724,0833,12111,021.2,045.3,0.268,763.5,01.16,0.508
2015-12-22 04:03:00,1951E-3,5C000400,-0724,0833,12182,021.2,045.3,0.268,763.5,01.16,0.508
2015-12-22 04:04:00,1729E-3,5C000400,-0724,0833,12208,021.2,045.3,0.268,763.5,01.16,0.508
2015-12-22 04:05:00,1814E-3,5C000400,-0724,0833,12119,021.2,045.2,0.267,763.4,01.16,0.508
2015-12-22 04:06:00,1725E-3,5C000400,-0724,0833,12121,021.2,045.3,0.268,763.5,01.16,0.508
2015-12-22 04:07:00,1819E-3,5C000400,-0724,0833,12139,021.2,045.3,0.268,763.5,01.16,0.508
2015-12-22 04:08:00,1868E-3,5C000400,-0724,0832,12270,021.2,045.3,0.268,763.5,01.16,0.508
2015-12-22 04:09:00,1746E-3,5C000400,-0724,0833,12139,021.2,045.3,0.268,763.5,01.16,0.508
2015-12-22 04:10:00,1845E-3,5C000400,-0724,0833,12198,021.2,045.3,0.267,763.5,01.16,0.508
2015-12-22 04:11:00,1869E-3,5C000400,-0724,0833,12177,021.2,045.3,0.268,763.5,01.16,0.508
2015-12-22 04:12:00,1858E-3,5C000400,-0724,0832,12216,021.2,045.3,0.267,763.5,01.16,0.508
2015-12-22 04:13:00,1850E-3,5C000400,-0724,0832,12132,021.2,045.2,0.268,763.6,01.16,0.508
2015-12-22 04:14:00,1835E-3,5C000400,-0724,0833,12168,021.2,045.3,0.268,763.5,01.16,0.508
2015-12-22 04:15:00,1860E-3,5C000400,-0724,0833,12321,021.2,045.3,0.268,763.5,01.16,0.508
2015-12-22 04:16:00,1782E-3,5C000400,-0724,0833,12165,021.2,045.3,0.268,763.5,01.16,0.508
2015-12-22 04:17:00,1781E-3,5C000400,-0724,0832,12227,021.2,045.2,0.268,763.6,01.16,0.508
2015-12-22 04:18:00,1865E-3,5C000400,-0724,0832,12203,021.2,045.2,0.267,763.6,01.16,0.508
2015-12-22 04:19:00,1855E-3,5C000400,-0724,0832,12125,021.2,045.2,0.268,763.6,01.16,0.508
2015-12-22 04:20:00,1829E-3,5C000400,-0724,0833,12309,021.2,045.2,0.267,763.6,01.16,0.508